Flag for United Kingdom Weather past 2 weeks in King's Lynn, England, United Kingdom

Now
54 °F

Passing clouds.


Feels Like: 52 °F
Forecast: 53 / 65 °F
Wind: 6 mph from Southwest

Location: Marham

Current Time: Aug 31, 2014 at 2:29:42 AM

Latest Report: Aug 31, 2014 at 1:50 AM


Visibility: N/A

Pressure: 29.98 "Hg

Humidity: 94%

Dew point: 52 °F

Location of King's LynnLocation

Historic Weather in King's Lynn — Graph

°F

King's Lynn temperature yesterday

Maximum temperature yesterday: 66 °F (at 12:50 PM)
Minimum temperature yesterday: 57 °F (at 4:50 AM)
Average temperature yesterday: 61 °F

Past Weeks' High & Low Weather Summary

 TemperatureHumidityPressure
High72 °F (Aug 28, 3:50 PM)100% (Aug 16, 12:50 AM)30.09 "Hg (Aug 16, 12:50 AM)
Low41 °F (Aug 20, 2:50 AM)42% (Aug 19, 2:50 PM)29.59 "Hg (Aug 25, 8:50 PM)
Average57 °F76%29.87 "Hg
* Reported Aug 16 12:50 AM — Aug 31 12:50 AM, King's Lynn, Weather by CustomWeather, © 2014

Note: Actual official high and low records may vary slightly from our data, if they occured in-between our weather recording intervals... More about our weather records

Advertising

King's Lynn weather history for previous 24 hours

 ConditionsComfort  
Time TempWeatherWind HumidityBarometerVisibility
12:50 AM
Aug 31
55 °FPassing clouds.9 mph94%29.98 "HgN/A
11:50 PM
Aug 30
57 °FPassing clouds.7 mph88%29.98 "HgN/A
10:50 PM59 °FOvercast.9 mph82%29.98 "HgN/A
9:50 PM61 °FOvercast.12 mph77%29.98 "HgN/A
8:50 PM61 °FPartly sunny.8 mph77%29.95 "HgN/A
7:50 PM61 °FPartly sunny.12 mph72%29.95 "HgN/A
6:50 PM63 °FScattered clouds.6 mph68%29.95 "HgN/A
5:50 PM64 °FOvercast.8 mph64%29.92 "HgN/A
4:50 PM66 °FPartly sunny.10 mph56%29.92 "HgN/A
3:50 PM66 °FPartly sunny.13 mph60%29.92 "HgN/A
2:50 PM64 °FBroken clouds.10 mph64%29.92 "HgN/A
1:50 PM64 °FBroken clouds.13 mph64%29.92 "HgN/A
12:50 PM66 °FPartly sunny.15 mph64%29.92 "HgN/A
11:50 AM63 °FPartly sunny.15 mph73%29.92 "HgN/A
10:50 AM61 °FBroken clouds.16 mph77%29.92 "HgN/A
9:50 AM61 °FPartly sunny.15 mph77%29.89 "HgN/A
8:50 AM57 °FPartly sunny.14 mph88%29.89 "HgN/A
7:50 AM59 °FPartly sunny.13 mph88%29.89 "HgN/A
6:50 AM57 °FPartly cloudy.8 mph100%29.86 "HgN/A
5:50 AM57 °FPassing clouds.10 mph100%29.83 "HgN/A
4:50 AM57 °FLots of rain. Passing clouds.9 mph94%29.86 "Hg1 mi
3:50 AM59 °FPassing clouds.12 mph88%29.83 "HgN/A
2:50 AM61 °FOvercast.14 mph88%29.83 "HgN/A
Weather by CustomWeather, © 2014

See weather overviewHow to use our weather pages